SCP
0 0 0 0 0 0 0 0 0 0 0 0 0 0 0 0 0 0 0 0 0 0 0 0 0 0 0 0 0 0 0 0 0 0 0 0 0 0 0 0 0 0 0 0
0 0 0 0 0 0 0 0 0 0 0 0 0 0 0 0 0 0 0 0 0 0 0 0 0 0 0 0 0 0 0 0 0 0 0 0 0 0 0 0 0 0 0 0
0 0 0 0 0 0 0 0 0 0 0 0 0 0 0 0 0 0 0 0 0 0 0 0 0 0 0 0 0 0 0 0 0 0 0 0 0 0 0 0 0 0 0 0
0 0 0 0 0 0 0 0 0 0 0 0 0 0 0 0 0 0 0 0 0 0 0 0 0 0 0 0 0 0 0 0 0 0 0 0 0 0 0 0 0 0 0 0
0 0 0 0 0 0 0 0 0 0 0 0 0 0 0 0 0 0 0 0 0 0 0 0 0 0 0 0 0 0 0 0 0 0 0 0 0 0 0 0 0 0 0 0
0 0 0 0 0 0 0 0 0 0 0 0 0 0 0 0 0 0 0 0 0 0 0 0 0 0 0 0 0 0 0 0 0 0 0 0 0 0 0 0 0 0 0 0
0 0 0 0 0 0 0 0 0 0 0 0 0 0 0 0 0 0 0 0 0 0 0 0 0 0 0 0 0 0 0 0 0 0 0 0 0 0 0 0 0 0 0 0
0 0 0 0 0 0 0 0 0 0 0 0 0 0 0 0 0 0 0 0 0 0 0 0 0 0 0 0 0 0 0 0 0 0 0 0 0 0 0 0 0 0 0 0
0 0 0 0 0 0 0 0 0 0 0 0 0 0 0 0 0 0 0 0 0 0 0 0 0 0 0 0 0 0 0 0 0 0 0 0 0 0 0 0 0 0 0 0
0 0 0 0 0 0 0 0 0 0 0 0 0 0 0 0 0 0 0 0 0 0 0 0 0 0 0 0 0 0 0 0 0 0 0 0 0 0 0 0 0 0 0 0
0 0 0 0 0 0 0 0 0 0 0 0 0 0 0 0 0 0 0 0 0 0 0 0 0 0 0 0 0 0 0 0 0 0 0 0 0 0 0 0 0 0 0 0
0 0 0 0 0 0 0 0 0 0 0 0 0 0 0 0 0 0 0 0 0 0 0 0 0 0 0 0 0 0 0 0 0 0 0 0 0 0 0 0 0 0 0 0
0 0 0 0 0 0 0 0 0 0 0 0 0 0 0 0 0 0 0 0 0 0 0 0 0 0 0 0 0 0 0 0 0 0 0 0 0 0 0 0 0 0 0 0
0 0 0 0 0 0 0 0 0 0 0 0 0 0 0 0 0 0 0 0 0 0 0 0 0 0 0 0 0 0 0 0 0 0 0 0 0 0 0 0 0 0 0 0
0 0 0 0 0 0 0 0 0 0 0 0 0 0 0 0 0 0 0 0 0 0 0 0 0 0 0 0 0 0 0 0 0 0 0 0 0 0 0 0 0 0 0 0
0 0 0 0 0 0 0 0 0 0 0 0 0 0 0 0 0 0 0 0 0 0 0 0 0 0 0 0 0 0 0 0 0 0 0 0 0 0 0 0 0 0 0 0
0 0 0 0 0 0 0 0 0 0 0 0 0 0 0 0 0 0 0 0 0 0 0 0 0 0 0 0 0 0 0 0 0 0 0 0 0 0 0 0 0 0 0 0
0 0 0 0 0 0 0 0 0 0 0 0 0 0 0 0 0 0 0 0 0 0 0 0 0 0 0 0 0 0 0 0 0 0 0 0 0 0 0 0 0 0 0 0
0 0 0 0 0 0 0 0 0 0 0 0 0 0 0 0 0 0 0 0 0 0 0 0 0 0 0 0 0 0 0 0 0 0 0 0 0 0 0 0 0 0 0 0
0 0 0 0 0 0 0 0 0 0 0 0 0 0 0 0 0 0 0 0 0 0 0 0 0 0 0 0 0 0 0 0 0 0 0 0 0 0 0 0 0 0 0 0
0 0 0 0 0 0 0 0 0 0 0 0 0 0 0 0 0 0 0 0 0 0 0 0 0 0 0 0 0 0 0 0 0 0 0 0 0 0 0 0 0 0 0 0
0 0 0 0 0 0 0 0 0 0 0 0 0 0 0 0 0 0 0 0 0 0 0 0 0 0 0 0 0 0 0 0 0 0 0 0 0 0 0 0 0 0 0 0
0 0 0 0 0 0 0 0 0 0 0 0 0 0 0 0 0 0 0 0 0 0 0 0 0 0 0 0 0 0 0 0 0 0 0 0 0 0 0 0 0 0 0 0
0 0 0 0 0 0 0 0 0 0 0 0 0 0 0 0 0 0 0 0 0 0 0 0 0 0 0 0 0 0 0 0 0 0 0 0 0 0 0 0 0 0 0 0
0 0 0 0 0 0 0 0 0 0 0 0 0 0 0 0 0 0 0 0 0 0 0 0 0 0 0 0 0 0 0 0 0 0 0 0 0 0 0 0 0 0 0 0
0 0 0 0 0 0 0 0 0 0 0 0 0 0 0 0 0 0 0 0 0 0 0 0 0 0 0 0 0 0 0 0 0 0 0 0 0 0 0 0 0 0 0 0
0 0 0 0 0 0 0 0 0 0 0 0 0 0 0 0 0 0 0 0 0 0 0 0 0 0 0 0 0 0 0 0 0 0 0 0 0 0 0 0 0 0 0 0
Wind_Speed
12 11 10 11 11 11 13 13 13 10 10 7 4 3 3 3 4 4 4 4 4 3 3 2 2 1 1 1 0 0 1 2 2 2 2 3 3 4 4 4 5 5 5 6
11 10 11 13 12 12 13 12 12 12 10 4 2 2 3 4 5 5 5 4 4 4 3 3 2 1 1 1 0 1 1 2 2 2 2 3 3 3 4 5 5 5 5 5
10 9 10 12 10 11 11 10 10 10 6 2 3 4 4 4 6 6 5 4 4 4 3 2 2 1 1 1 1 0 1 2 2 2 3 3 4 4 4 4 5 5 5 5
8 8 12 4 2 6 8 8 7 6 3 3 2 2 2 4 5 5 5 5 4 3 3 2 2 1 1 1 1 0 1 2 2 2 3 4 4 4 4 4 5 5 5 6
7 10 9 5 3 4 6 5 3 3 2 3 3 3 4 4 4 4 5 4 4 3 3 3 2 1 1 1 0 1 2 3 3 3 4 4 4 5 5 5 5 6 6 5
8 9 9 2 2 1 5 6 2 1 2 4 5 5 3 4 4 5 4 4 4 4 3 3 2 1 2 1 1 2 3 3 4 4 4 5 5 5 5 5 6 6 5 4
10 9 6 3 1 3 7 1 3 0 2 3 3 3 2 4 4 5 5 4 4 4 3 3 2 2 2 1 2 3 3 4 4 4 5 5 5 5 5 6 6 6 6 5
8 9 3 4 1 2 4 4 1 0 1 1 0 1 3 5 5 5 5 5 5 4 3 2 2 2 2 2 2 3 3 4 4 5 6 5 5 5 5 6 6 6 5 5
4 2 3 1 1 2 2 1 1 0 1 2 2 3 4 5 5 5 5 5 4 4 3 2 2 2 2 2 3 3 3 4 4 5 5 5 6 6 5 5 5 5 4 4
3 2 1 1 1 0 1 1 1 1 2 3 3 4 5 5 5 5 5 5 5 4 3 2 2 2 2 3 3 3 4 4 4 5 5 5 5 5 5 5 5 5 5 4
5 3 1 1 2 1 0 1 1 2 2 2 4 4 4 4 4 4 4 4 4 3 3 2 2 2 3 3 3 4 4 4 5 5 5 5 5 4 5 4 4 5 6 5
4 3 4 2 3 2 1 1 1 2 2 2 2 3 3 3 3 3 3 3 3 3 3 2 2 2 3 3 3 4 4 5 4 5 4 5 5 4 2 3 2 4 5 6
4 5 5 2 2 2 1 0 1 2 2 2 2 2 3 3 3 3 3 3 3 2 2 2 2 3 3 3 3 4 5 5 5 5 5 5 5 5 4 2 4 5 5 5
2 2 1 2 2 2 1 1 1 2 2 2 2 2 2 2 2 2 2 2 2 2 2 3 3 3 3 3 3 4 5 4 5 5 5 5 5 6 5 5 4 3 4 6
2 2 1 1 1 1 1 2 2 2 2 2 2 2 2 2 2 1 1 1 1 2 2 2 2 3 3 3 4 5 5 5 4 5 6 5 5 6 6 6 5 4 4 3
1 1 1 1 1 1 1 2 2 2 1 1 1 1 2 2 2 1 1 1 1 2 2 3 3 3 4 4 4 4 4 3 5 6 6 6 5 5 5 5 5 5 5 5
1 1 1 1 1 1 1 1 1 1 1 1 1 2 2 2 1 1 1 1 2 2 3 3 4 4 4 4 5 5 5 3 4 6 5 5 5 6 5 5 5 5 5 4
2 1 1 1 1 1 0 1 1 1 1 0 1 1 1 1 1 1 2 2 2 2 3 4 4 5 5 5 5 6 5 5 4 5 5 4 5 6 6 5 5 6 5 3
3 3 2 2 2 1 0 0 0 0 0 0 0 0 0 1 2 2 2 3 3 3 3 4 4 5 5 4 5 6 6 5 5 4 4 5 5 5 5 5 5 5 5 5
3 3 3 3 3 2 1 1 1 1 1 1 1 1 1 2 2 3 3 4 3 4 4 4 5 4 4 4 5 6 5 5 5 5 4 5 5 5 5 5 5 5 5 5
3 3 3 3 2 2 2 1 1 1 1 2 2 2 3 3 3 3 4 4 3 3 4 3 4 4 3 4 6 6 5 5 5 5 5 5 5 5 5 5 6 6 5 6
3 3 3 3 2 3 2 2 2 2 2 2 3 3 3 3 4 4 3 4 4 3 4 4 3 4 5 7 6 6 5 5 5 5 4 5 5 5 5 5 5 5 6 6
4 4 4 4 4 4 4 3 3 3 2 2 3 3 3 4 4 4 4 3 3 4 5 4 4 4 6 7 6 5 5 6 6 5 5 5 5 5 5 6 5 5 6 6
4 4 4 4 3 3 4 4 4 3 3 3 2 3 4 4 3 3 3 2 2 4 5 3 2 4 7 6 5 5 5 5 6 6 6 5 5 5 5 5 5 5 6 7
4 4 4 4 3 3 3 3 3 3 3 2 2 3 3 3 4 4 4 5 3 5 6 4 4 6 6 6 6 6 5 5 6 7 6 6 6 6 6 5 5 5 5 6
3 3 3 4 4 3 3 3 3 3 3 3 3 3 3 3 4 4 4 5 6 6 6 5 4 5 5 6 6 6 6 5 5 6 6 6 6 6 6 5 6 5 5 5
3 2 2 2 2 3 3 3 3 3 3 4 4 5 5 5 5 5 5 5 5 5 5 6 6 5 5 5 6 6 6 6 6 6 6 6 6 6 5 6 5 5 5 4
Wind_Direction
264 271 260 255 250 240 241 255 269 277 279 282 268 244 218 198 181 173 164 162 157 149 135 130 123 125 102 80 62 298 275 280 280 277 278 282 281 276 274 273 265 264 264 262
257 254 254 256 252 245 246 254 260 268 272 272 261 218 203 191 184 182 176 169 159 150 146 143 141 135 119 121 139 256 279 294 302 299 283 281 279 280 280 278 277 270 265 265
258 255 257 249 246 244 246 250 256 263 273 220 218 210 210 193 188 187 179 169 161 153 148 150 156 157 157 157 175 205 305 308 312 302 293 289 286 283 280 280 277 269 268 267
262 254 249 257 266 252 251 254 256 260 245 206 211 195 199 194 188 181 175 167 158 153 153 161 159 157 173 174 189 259 315 316 314 303 304 305 296 289 288 285 281 275 269 268
252 253 256 233 216 234 246 252 262 250 201 169 143 182 188 174 178 177 172 163 156 158 154 155 158 166 192 214 255 299 308 300 304 306 305 302 301 302 298 290 285 280 272 267
247 258 264 299 82 245 245 229 145 173 163 164 184 230 148 135 161 164 164 163 160 159 155 153 155 188 216 235 270 292 301 303 310 307 300 296 299 298 298 288 284 282 282 279
246 253 259 50 77 215 237 31 66 151 173 191 236 323 86 144 159 158 161 167 168 169 166 154 164 199 236 264 289 301 304 306 311 309 297 292 293 290 290 285 285 283 282 273
243 248 246 69 196 268 6 27 54 115 188 200 341 124 151 156 158 160 164 168 171 173 167 159 179 211 242 278 300 302 302 306 312 306 301 306 298 288 287 286 277 268 265 267
287 309 46 31 347 29 16 16 30 154 164 174 171 161 157 155 157 161 167 170 176 179 176 184 205 229 258 289 296 296 299 304 305 304 302 299 295 292 286 278 279 285 284 283
257 241 293 309 222 235 3 6 43 144 162 172 163 155 157 159 159 162 169 177 180 186 196 208 225 249 272 287 293 292 294 298 298 297 297 299 296 293 296 299 298 301 299 296
257 278 278 53 15 1 42 81 112 138 153 167 162 162 161 163 167 169 174 185 192 197 206 216 234 263 275 281 280 284 288 289 291 293 299 296 293 302 299 314 321 302 302 301
300 340 313 324 339 337 326 161 159 157 158 167 170 169 169 168 163 169 178 186 198 207 215 234 249 266 279 280 272 278 281 286 289 289 296 296 296 293 275 259 250 254 272 285
306 315 317 301 313 323 317 179 177 175 165 162 168 174 177 166 163 180 191 194 205 218 232 246 258 271 286 286 282 285 289 292 294 297 298 297 300 302 302 274 223 233 242 246
330 327 322 352 345 349 53 111 146 145 142 138 137 150 157 157 165 183 197 206 218 237 248 252 262 276 290 290 283 282 283 278 280 291 296 300 303 303 303 303 298 282 235 222
333 325 312 333 4 68 97 119 123 113 109 114 127 148 154 161 163 166 189 221 237 253 262 273 281 296 299 288 282 283 285 293 303 305 297 300 301 300 300 299 296 296 292 242
344 356 72 85 79 74 94 107 107 98 107 124 130 138 147 144 137 138 151 220 260 281 294 295 295 299 294 288 284 275 273 274 283 292 295 299 300 301 303 300 297 294 292 298
3 14 18 10 18 30 40 53 66 101 119 120 120 134 148 152 155 153 266 285 286 288 292 292 298 301 293 286 282 283 288 276 250 274 290 301 304 303 302 301 300 297 296 313
350 353 337 319 303 291 2 92 87 44 39 76 127 138 162 194 231 293 308 304 289 293 304 304 309 299 293 290 288 288 288 291 294 300 305 306 307 303 301 298 301 302 300 290
23 21 16 358 337 327 339 66 60 46 42 108 123 111 300 281 281 288 299 294 289 296 319 327 319 288 287 295 293 274 284 290 290 291 296 298 287 294 301 304 307 306 307 308
36 37 34 23 16 6 359 350 331 282 259 240 238 256 268 276 286 286 287 285 295 317 318 317 298 289 287 295 290 283 287 288 292 296 292 294 297 299 298 299 303 303 303 306
30 35 37 34 28 11 358 349 309 279 273 261 249 256 270 280 284 290 291 293 311 326 312 300 289 293 298 317 280 281 286 289 289 288 291 293 293 296 299 299 302 304 306 305
12 15 15 14 13 11 10 351 322 302 296 284 276 275 277 277 281 283 286 299 317 343 300 291 299 344 332 308 290 291 294 295 291 289 287 288 291 294 297 298 300 304 303 301
9 5 4 5 7 6 1 351 346 335 317 305 305 303 298 298 300 297 296 312 317 328 297 308 350 342 309 289 291 295 299 298 293 288 286 287 288 287 289 295 300 305 304 304
11 4 1 2 5 7 4 358 352 343 330 309 304 304 297 292 293 295 307 314 311 303 296 327 306 291 283 282 291 294 297 298 296 290 289 290 293 293 294 296 298 302 304 304
8 359 357 351 350 358 360 350 347 341 330 325 318 310 301 299 300 311 314 310 309 283 285 275 240 258 272 286 291 294 295 301 307 307 300 297 293 291 294 298 302 304 305 307
6 357 358 344 343 334 331 332 334 333 330 329 323 312 304 303 303 301 292 289 292 287 289 294 284 269 280 286 289 293 295 295 290 287 295 298 296 294 295 302 305 304 305 310
355 350 336 335 332 332 335 336 331 327 324 318 313 312 310 309 305 300 295 291 289 288 292 291 288 286 285 285 288 288 289 292 293 293 294 296 296 294 296 295 295 300 305 309